Stündliche Wetter Kyshchentsi

Heute, 8 Mai, Samstag

Zeit Temperatur Niederschläge Wind Luftdruck Luftfeuchtigkeit
00:00 +11°C° 0.6 mm 3 m/S 734 mmHg 97%
01:00 +10°C° 0.6 mm 3 m/S 733 mmHg 97%
02:00 +10°C° 0 mm 2 m/S 733 mmHg 97%
03:00 +10°C° 0.6 mm 3 m/S 733 mmHg 96%
04:00 +10°C° 0.6 mm 3 m/S 733 mmHg 95%
05:00 +10°C° 0.6 mm 4 m/S 733 mmHg 95%
06:00 +9°C° 0.2 mm 5 m/S 733 mmHg 93%
07:00 +8°C° 0.2 mm 6 m/S 734 mmHg 92%
08:00 +8°C° 0.2 mm 7 m/S 734 mmHg 91%
09:00 +8°C° 0.1 mm 7 m/S 735 mmHg 86%
10:00 +8°C° 0.1 mm 7 m/S 736 mmHg 81%
11:00 +7°C° 0.1 mm 8 m/S 736 mmHg 77%
12:00 +7°C° 0.1 mm 8 m/S 737 mmHg 74%
13:00 +7°C° 0.1 mm 9 m/S 738 mmHg 72%
14:00 +7°C° 0.1 mm 9 m/S 738 mmHg 69%
15:00 +7°C° 0 mm 8 m/S 739 mmHg 70%
16:00 +6°C° 0 mm 8 m/S 739 mmHg 71%
17:00 +6°C° 0 mm 7 m/S 739 mmHg 72%
18:00 +5°C° 0 mm 6 m/S 740 mmHg 75%
19:00 +5°C° 0 mm 5 m/S 741 mmHg 77%
20:00 +3°C° 0 mm 5 m/S 741 mmHg 80%
21:00 +3°C° 0 mm 4 m/S 742 mmHg 83%
22:00 +3°C° 0 mm 4 m/S 742 mmHg 85%
23:00 +2°C° 0 mm 3 m/S 742 mmHg 88%

Morgen, 9 Mai, Sonntag

Zeit Temperatur Niederschläge Wind Luftdruck Luftfeuchtigkeit
00:00 +2°C° 0 mm 3 m/S 742 mmHg 89%
01:00 +2°C° 0 mm 3 m/S 743 mmHg 91%
02:00 0°C° 0 mm 4 m/S 743 mmHg 92%
03:00 +1°C° 0 mm 3 m/S 744 mmHg 91%
04:00 +1°C° 0 mm 3 m/S 744 mmHg 91%
05:00 +1°C° 0 mm 3 m/S 744 mmHg 91%
06:00 +3°C° 0 mm 3 m/S 745 mmHg 83%
07:00 +5°C° 0 mm 4 m/S 746 mmHg 75%
08:00 +7°C° 0 mm 4 m/S 746 mmHg 67%
09:00 +8°C° 0 mm 4 m/S 746 mmHg 62%
10:00 +10°C° 0 mm 4 m/S 746 mmHg 57%
11:00 +11°C° 0 mm 4 m/S 746 mmHg 52%
12:00 +12°C° 0 mm 4 m/S 746 mmHg 50%
13:00 +12°C° 0 mm 3 m/S 746 mmHg 47%
14:00 +13°C° 0 mm 3 m/S 747 mmHg 45%
15:00 +13°C° 0 mm 3 m/S 747 mmHg 48%
16:00 +14°C° 0 mm 2 m/S 747 mmHg 50%
17:00 +14°C° 0 mm 2 m/S 747 mmHg 53%
18:00 +12°C° 0 mm 1 m/S 747 mmHg 57%
19:00 +11°C° 0 mm 1 m/S 747 mmHg 60%
20:00 +9°C° 0 mm 1 m/S 748 mmHg 63%
21:00 +9°C° 0 mm 1 m/S 748 mmHg 65%
22:00 +8°C° 0 mm 1 m/S 748 mmHg 68%
23:00 +7°C° 0 mm 1 m/S 748 mmHg 70%

übermorgen, 10 Mai, Montag

Zeit Temperatur Niederschläge Wind Luftdruck Luftfeuchtigkeit
00:00 +7°C° 0 mm 1 m/S 748 mmHg 71%
01:00 +7°C° 0 mm 1 m/S 748 mmHg 72%
02:00 +6°C° 0 mm 1 m/S 748 mmHg 73%
03:00 +6°C° 0 mm 1 m/S 749 mmHg 74%
04:00 +6°C° 0 mm 1 m/S 749 mmHg 75%
05:00 +6°C° 0 mm 1 m/S 749 mmHg 76%
06:00 +7°C° 0 mm 2 m/S 749 mmHg 71%
07:00 +9°C° 0 mm 2 m/S 749 mmHg 67%
08:00 +12°C° 0 mm 2 m/S 750 mmHg 63%
09:00 +13°C° 0 mm 2 m/S 750 mmHg 58%
10:00 +14°C° 0 mm 2 m/S 749 mmHg 54%
11:00 +15°C° 0 mm 2 m/S 749 mmHg 49%
12:00 +16°C° 0 mm 2 m/S 749 mmHg 47%
13:00 +16°C° 0 mm 2 m/S 749 mmHg 46%
14:00 +17°C° 0 mm 2 m/S 748 mmHg 44%
15:00 +16°C° 0 mm 2 m/S 748 mmHg 45%
16:00 +16°C° 0 mm 2 m/S 748 mmHg 47%
17:00 +16°C° 0 mm 2 m/S 748 mmHg 49%
18:00 +13°C° 0 mm 3 m/S 748 mmHg 56%
19:00 +11°C° 0 mm 3 m/S 748 mmHg 64%
20:00 +9°C° 0 mm 3 m/S 748 mmHg 71%
21:00 +9°C° 0 mm 3 m/S 748 mmHg 72%
22:00 +8°C° 0 mm 3 m/S 748 mmHg 72%
23:00 +7°C° 0 mm 2 m/S 748 mmHg 73%

11 Mai, Dienstag

Zeit Temperatur Niederschläge Wind Luftdruck Luftfeuchtigkeit
00:00 +7°C° 0 mm 2 m/S 748 mmHg 73%
01:00 +7°C° 0 mm 2 m/S 747 mmHg 74%
02:00 +6°C° 0 mm 2 m/S 747 mmHg 74%
03:00 +6°C° 0 mm 2 m/S 747 mmHg 76%
04:00 +6°C° 0 mm 2 m/S 747 mmHg 77%
05:00 +6°C° 0 mm 2 m/S 747 mmHg 78%
06:00 +8°C° 0 mm 3 m/S 746 mmHg 73%
07:00 +8°C° 0 mm 4 m/S 746 mmHg 67%
08:00 +10°C° 0 mm 5 m/S 746 mmHg 62%
09:00 +13°C° 0 mm 5 m/S 746 mmHg 58%
10:00 +14°C° 0 mm 5 m/S 745 mmHg 55%
11:00 +15°C° 0 mm 5 m/S 745 mmHg 51%
12:00 +16°C° 0 mm 5 m/S 745 mmHg 52%
13:00 +16°C° 0 mm 5 m/S 744 mmHg 53%
14:00 +17°C° 0 mm 5 m/S 744 mmHg 54%
15:00 +17°C° 0 mm 5 m/S 744 mmHg 58%
16:00 +17°C° 0 mm 5 m/S 743 mmHg 62%
17:00 +17°C° 0 mm 5 m/S 743 mmHg 66%
18:00 +15°C° 0 mm 5 m/S 743 mmHg 72%
19:00 +13°C° 0 mm 4 m/S 743 mmHg 78%
20:00 +11°C° 0 mm 4 m/S 743 mmHg 84%
21:00 +10°C° 0 mm 4 m/S 743 mmHg 88%
22:00 +9°C° 0 mm 3 m/S 743 mmHg 91%
23:00 +8°C° 0 mm 3 m/S 742 mmHg 95%

12 Mai, Mittwoch

Zeit Temperatur Niederschläge Wind Luftdruck Luftfeuchtigkeit
00:00 +8°C° 0 mm 3 m/S 742 mmHg 95%
01:00 +7°C° 0 mm 3 m/S 742 mmHg 96%
02:00 +5°C° 0 mm 3 m/S 742 mmHg 96%
03:00 +5°C° 0 mm 3 m/S 741 mmHg 95%
04:00 +5°C° 0 mm 3 m/S 741 mmHg 95%
05:00 +5°C° 0 mm 3 m/S 741 mmHg 94%
06:00 +6°C° 0 mm 4 m/S 741 mmHg 86%
07:00 +8°C° 0 mm 5 m/S 740 mmHg 79%
08:00 +9°C° 0 mm 5 m/S 740 mmHg 71%
09:00 +9°C° 0 mm 5 m/S 740 mmHg 70%
10:00 +9°C° 0 mm 5 m/S 740 mmHg 69%
11:00 +11°C° 0 mm 4 m/S 739 mmHg 67%
12:00 +11°C° 0.1 mm 4 m/S 739 mmHg 65%
13:00 +12°C° 0.1 mm 4 m/S 739 mmHg 63%
14:00 +13°C° 0.1 mm 3 m/S 738 mmHg 60%
15:00 +13°C° 0.1 mm 3 m/S 738 mmHg 62%
16:00 +12°C° 0.1 mm 3 m/S 738 mmHg 65%
17:00 +12°C° 0.1 mm 3 m/S 738 mmHg 67%
18:00 +11°C° 0.1 mm 3 m/S 737 mmHg 72%
19:00 +10°C° 0.1 mm 3 m/S 737 mmHg 77%
20:00 +9°C° 0.1 mm 2 m/S 737 mmHg 81%
21:00 +8°C° 0 mm 2 m/S 737 mmHg 83%
22:00 +8°C° 0 mm 2 m/S 737 mmHg 85%
23:00 +8°C° 0 mm 2 m/S 737 mmHg 88%

13 Mai, Donnerstag

Zeit Temperatur Niederschläge Wind Luftdruck Luftfeuchtigkeit
00:00 +7°C° 0 mm 2 m/S 737 mmHg 87%
01:00 +7°C° 0 mm 2 m/S 737 mmHg 87%
02:00 +7°C° 0 mm 2 m/S 736 mmHg 87%
03:00 +7°C° 0 mm 2 m/S 736 mmHg 87%
04:00 +6°C° 0 mm 2 m/S 736 mmHg 87%
05:00 +5°C° 0 mm 3 m/S 736 mmHg 87%
06:00 +7°C° 0 mm 3 m/S 736 mmHg 83%
07:00 +8°C° 0 mm 3 m/S 736 mmHg 80%
08:00 +8°C° 0 mm 4 m/S 736 mmHg 76%
09:00 +8°C° 0.2 mm 4 m/S 736 mmHg 77%
10:00 +10°C° 0.2 mm 4 m/S 736 mmHg 78%
11:00 +9°C° 0.2 mm 5 m/S 736 mmHg 79%
12:00 +10°C° 0.2 mm 4 m/S 736 mmHg 80%
13:00 +11°C° 0.2 mm 4 m/S 736 mmHg 82%
14:00 +11°C° 0.2 mm 4 m/S 736 mmHg 84%
15:00 +12°C° 0 mm 4 m/S 736 mmHg 80%
16:00 +13°C° 0 mm 4 m/S 736 mmHg 77%
17:00 +14°C° 0 mm 5 m/S 736 mmHg 73%
18:00 +13°C° 0 mm 4 m/S 736 mmHg 76%
19:00 +12°C° 0 mm 3 m/S 736 mmHg 80%
20:00 +10°C° 0 mm 3 m/S 736 mmHg 83%
21:00 +10°C° 0 mm 2 m/S 736 mmHg 84%
22:00 +10°C° 0 mm 2 m/S 736 mmHg 85%
23:00 +9°C° 0 mm 2 m/S 736 mmHg 86%
Mehr zeigen

Wir brauchen deine Erlaubnis

Meteoprog und unser Service Anbieter werden persönliche Daten aufbewahren, so wie Cookies, Geräte Bezeichnung oder ähnliche Technologien von deinem Gerät und Prozess, so wie Persönliche Daten Inhalte und Werbungen, genauso wie social Media und den Verkehr zu analysieren.

  • Aufbewahrung und/oder Zugang zu deiner Geräte Informationen.

    Cookies, Geräte Bezeichnung oder andere Informationen, können aufbewahrt oder Zugang zu deinem Gerät erhalten, für den Grund, der oben angegeben wird.

  • Personalisierte Werbung und Inhalte, Messungen, Einblick in das Publikum und Produkt Entwicklung.

    Werbungen und Inhalte können personalisiert werden, basierend auf ein Profil. Mehr Daten können besser personalisierte Werbungen und Inhalte hinzufügen. Werbung und Inhalte können gezeigt und gemessen werden. Einblicke über das Publikum, welche die Werbung gesehen haben und den Inhalt, können abgeleitet werden. So wie Daten können genutzt werden, um es zu verbessern oder die Benutzer Erfahrung zu verbessern das System und die Software.

Wenn du “Ich stimme zu” klickst, erlaubst du uns, die Cookies zu benutzen die Geräte Bezeichnung, den Web oder ähnliche Technologien zu benutzen. Deine Settings, können in deinem Gerät bei deinem Browser geändert werden.

Für den bestimmten Zweck, berechtigten Interessen beruhen darauf, mehr als auf den Inhalt. Du kannst mehr darüber in unseren Privaten und Cookie Politik lesen.